When you browse on this site, cookies collect data to enhance your experience and personalize the content and advertising you see.
Visit our Privacy Policy to learn more. By continuing to use the site, you agree to this use of cookies and data.
  • En España
  • Lista de países
  • Para 7 días
  • Temperatura del agua
  • Mapa Satelital
  • El tiempo en el mapa
  • Informadores
  • user-avatar
    Iniciar sesión

    Tiempo cada hora Turin

    Hoy, 17 Junio, Lunes

    Tiempo Temperatura Precipitaciones Viento Presión Humedad
    00:00 +22°C° 0 mm 1 mps 740 mmHg 56%
    01:00 +21°C° 0 mm 1 mps 741 mmHg 56%
    02:00 +21°C° 0 mm 1 mps 740 mmHg 57%
    03:00 +20°C° 0 mm 1 mps 740 mmHg 57%
    04:00 +20°C° 0 mm 1 mps 740 mmHg 58%
    05:00 +21°C° 0 mm 1 mps 740 mmHg 58%
    06:00 +20°C° 0 mm 0 mps 740 mmHg 59%
    07:00 +21°C° 0 mm 0 mps 740 mmHg 59%
    08:00 +24°C° 0 mm 1 mps 741 mmHg 56%
    09:00 +25°C° 0 mm 1 mps 741 mmHg 53%
    10:00 +27°C° 0 mm 2 mps 741 mmHg 51%
    11:00 +28°C° 0 mm 2 mps 741 mmHg 50%
    12:00 +29°C° 0 mm 2 mps 741 mmHg 50%
    13:00 +29°C° 0 mm 2 mps 740 mmHg 50%
    14:00 +29°C° 0.2 mm 2 mps 740 mmHg 50%
    15:00 +29°C° 0.2 mm 2 mps 740 mmHg 50%
    16:00 +30°C° 0.2 mm 2 mps 739 mmHg 50%
    17:00 +29°C° 0 mm 1 mps 739 mmHg 55%
    18:00 +28°C° 0 mm 1 mps 739 mmHg 59%
    19:00 +27°C° 0 mm 1 mps 739 mmHg 63%
    20:00 +26°C° 0 mm 1 mps 740 mmHg 67%
    21:00 +24°C° 0 mm 1 mps 740 mmHg 70%
    22:00 +23°C° 0 mm 1 mps 740 mmHg 73%
    23:00 +22°C° 0 mm 1 mps 740 mmHg 73%

    Mañana, 18 Junio, Martes

    Tiempo Temperatura Precipitaciones Viento Presión Humedad
    00:00 +22°C° 0 mm 1 mps 740 mmHg 73%
    01:00 +21°C° 0 mm 1 mps 740 mmHg 72%
    02:00 +21°C° 0 mm 1 mps 740 mmHg 72%
    03:00 +20°C° 0 mm 1 mps 740 mmHg 71%
    04:00 +20°C° 0 mm 1 mps 740 mmHg 70%
    05:00 +21°C° 0 mm 1 mps 740 mmHg 68%
    06:00 +20°C° 0 mm 0 mps 740 mmHg 66%
    07:00 +21°C° 0 mm 0 mps 740 mmHg 64%
    08:00 +23°C° 0 mm 0 mps 740 mmHg 61%
    09:00 +24°C° 0 mm 0 mps 740 mmHg 58%
    10:00 +28°C° 0 mm 1 mps 740 mmHg 55%
    11:00 +29°C° 0 mm 1 mps 740 mmHg 52%
    12:00 +30°C° 0 mm 1 mps 740 mmHg 48%
    13:00 +30°C° 0 mm 1 mps 739 mmHg 45%
    14:00 +31°C° 0 mm 1 mps 739 mmHg 44%
    15:00 +31°C° 0 mm 1 mps 739 mmHg 42%
    16:00 +31°C° 0 mm 1 mps 739 mmHg 41%
    17:00 +30°C° 0.1 mm 1 mps 739 mmHg 47%
    18:00 +29°C° 0.1 mm 1 mps 739 mmHg 53%
    19:00 +28°C° 0.1 mm 1 mps 738 mmHg 59%
    20:00 +26°C° 0.4 mm 1 mps 739 mmHg 63%
    21:00 +24°C° 0.4 mm 1 mps 739 mmHg 68%
    22:00 +23°C° 0.4 mm 1 mps 739 mmHg 72%
    23:00 +22°C° 0.7 mm 1 mps 739 mmHg 73%

    Pasado mañana, 19 Junio, Miércoles

    Tiempo Temperatura Precipitaciones Viento Presión Humedad
    00:00 +21°C° 0.7 mm 1 mps 739 mmHg 75%
    01:00 +21°C° 0.7 mm 1 mps 739 mmHg 76%
    02:00 +20°C° 0.2 mm 1 mps 739 mmHg 76%
    03:00 +20°C° 0.2 mm 1 mps 739 mmHg 76%
    04:00 +20°C° 0.2 mm 1 mps 738 mmHg 76%
    05:00 +21°C° 0 mm 1 mps 738 mmHg 74%
    06:00 +20°C° 0 mm 0 mps 739 mmHg 72%
    07:00 +21°C° 0 mm 0 mps 739 mmHg 70%
    08:00 +23°C° 0 mm 0 mps 738 mmHg 66%
    09:00 +26°C° 0 mm 1 mps 738 mmHg 62%
    10:00 +28°C° 0 mm 1 mps 738 mmHg 57%
    11:00 +29°C° 0.1 mm 1 mps 738 mmHg 54%
    12:00 +30°C° 0.1 mm 1 mps 738 mmHg 51%
    13:00 +31°C° 0.1 mm 1 mps 738 mmHg 48%
    14:00 +31°C° 0.2 mm 2 mps 738 mmHg 49%
    15:00 +31°C° 0.2 mm 2 mps 737 mmHg 49%
    16:00 +31°C° 0.2 mm 2 mps 737 mmHg 50%
    17:00 +30°C° 0.4 mm 2 mps 737 mmHg 57%
    18:00 +28°C° 0.4 mm 2 mps 737 mmHg 63%
    19:00 +27°C° 0.4 mm 2 mps 737 mmHg 70%
    20:00 +25°C° 0.2 mm 1 mps 738 mmHg 73%
    21:00 +24°C° 0.2 mm 1 mps 738 mmHg 77%
    22:00 +22°C° 0.2 mm 1 mps 738 mmHg 80%
    23:00 +22°C° 0.2 mm 1 mps 738 mmHg 80%

    20 Junio, Jueves

    Tiempo Temperatura Precipitaciones Viento Presión Humedad
    00:00 +21°C° 0.2 mm 1 mps 738 mmHg 80%
    01:00 +21°C° 0.2 mm 1 mps 738 mmHg 81%
    02:00 +20°C° 0.1 mm 1 mps 738 mmHg 81%
    03:00 +20°C° 0.1 mm 1 mps 738 mmHg 81%
    04:00 +20°C° 0.1 mm 1 mps 738 mmHg 82%
    05:00 +19°C° 0.1 mm 0 mps 738 mmHg 80%
    06:00 +19°C° 0.1 mm 0 mps 738 mmHg 78%
    07:00 +20°C° 0.1 mm 0 mps 738 mmHg 77%
    08:00 +22°C° 0 mm 0 mps 738 mmHg 72%
    09:00 +25°C° 0 mm 1 mps 738 mmHg 67%
    10:00 +27°C° 0 mm 1 mps 738 mmHg 62%
    11:00 +28°C° 0.1 mm 1 mps 738 mmHg 59%
    12:00 +29°C° 0.1 mm 1 mps 738 mmHg 56%
    13:00 +30°C° 0.1 mm 1 mps 738 mmHg 53%
    14:00 +30°C° 0.4 mm 1 mps 738 mmHg 54%
    15:00 +30°C° 0.4 mm 1 mps 738 mmHg 55%
    16:00 +30°C° 0.4 mm 1 mps 738 mmHg 56%
    17:00 +29°C° 0.7 mm 1 mps 738 mmHg 62%
    18:00 +28°C° 0.7 mm 1 mps 738 mmHg 68%
    19:00 +26°C° 0.7 mm 2 mps 738 mmHg 74%
    20:00 +25°C° 0.6 mm 1 mps 738 mmHg 77%
    21:00 +23°C° 0.6 mm 1 mps 738 mmHg 80%
    22:00 +22°C° 0.6 mm 1 mps 739 mmHg 83%
    23:00 +21°C° 0.4 mm 1 mps 739 mmHg 83%

    21 Junio, Viernes

    Tiempo Temperatura Precipitaciones Viento Presión Humedad
    00:00 +21°C° 0.4 mm 1 mps 738 mmHg 83%
    01:00 +20°C° 0.4 mm 1 mps 738 mmHg 84%
    02:00 +20°C° 0.1 mm 1 mps 738 mmHg 84%
    03:00 +20°C° 0.1 mm 1 mps 738 mmHg 84%
    04:00 +20°C° 0.1 mm 1 mps 738 mmHg 85%
    05:00 +18°C° 0.1 mm 0 mps 738 mmHg 84%
    06:00 +19°C° 0.1 mm 0 mps 739 mmHg 83%
    07:00 +20°C° 0.1 mm 0 mps 739 mmHg 82%
    08:00 +23°C° 0.2 mm 1 mps 739 mmHg 77%
    09:00 +25°C° 0.2 mm 1 mps 739 mmHg 73%
    10:00 +26°C° 0.2 mm 1 mps 739 mmHg 68%
    11:00 +27°C° 0.3 mm 1 mps 739 mmHg 65%
    12:00 +28°C° 0.3 mm 1 mps 739 mmHg 62%
    13:00 +28°C° 0.3 mm 1 mps 738 mmHg 59%
    14:00 +28°C° 0.4 mm 1 mps 738 mmHg 59%
    15:00 +28°C° 0.4 mm 1 mps 738 mmHg 60%
    16:00 +28°C° 0.4 mm 1 mps 738 mmHg 60%
    17:00 +27°C° 0.7 mm 1 mps 738 mmHg 65%
    18:00 +26°C° 0.7 mm 1 mps 738 mmHg 69%
    19:00 +25°C° 0.7 mm 2 mps 738 mmHg 74%
    20:00 +24°C° 0.7 mm 1 mps 738 mmHg 76%
    21:00 +23°C° 0.7 mm 1 mps 738 mmHg 79%
    22:00 +21°C° 0.7 mm 1 mps 739 mmHg 82%
    23:00 +21°C° 0.3 mm 1 mps 739 mmHg 82%

    22 Junio, Sábado

    Tiempo Temperatura Precipitaciones Viento Presión Humedad
    00:00 +20°C° 0.3 mm 1 mps 738 mmHg 82%
    01:00 +20°C° 0.3 mm 1 mps 738 mmHg 81%
    02:00 +20°C° 0 mm 1 mps 738 mmHg 81%
    03:00 +19°C° 0 mm 1 mps 738 mmHg 80%
    04:00 +19°C° 0 mm 1 mps 738 mmHg 80%
    05:00 +20°C° 0 mm 1 mps 738 mmHg 77%
    06:00 +19°C° 0 mm 0 mps 738 mmHg 74%
    07:00 +20°C° 0 mm 0 mps 738 mmHg 71%
    08:00 +22°C° 0 mm 0 mps 738 mmHg 66%
    09:00 +26°C° 0 mm 1 mps 738 mmHg 61%
    10:00 +28°C° 0 mm 1 mps 738 mmHg 56%
    11:00 +28°C° 0 mm 1 mps 738 mmHg 53%
    12:00 +29°C° 0 mm 1 mps 738 mmHg 50%
    13:00 +30°C° 0 mm 1 mps 739 mmHg 47%
    14:00 +31°C° 0 mm 1 mps 738 mmHg 46%
    15:00 +31°C° 0 mm 2 mps 738 mmHg 45%
    16:00 +31°C° 0 mm 2 mps 738 mmHg 45%
    17:00 +30°C° 0.1 mm 2 mps 738 mmHg 51%
    18:00 +29°C° 0.1 mm 2 mps 738 mmHg 58%
    19:00 +28°C° 0.1 mm 1 mps 739 mmHg 65%
    20:00 +26°C° 0 mm 1 mps 739 mmHg 68%
    21:00 +25°C° 0 mm 1 mps 740 mmHg 70%
    22:00 +23°C° 0 mm 1 mps 740 mmHg 73%
    23:00 +22°C° 0 mm 1 mps 740 mmHg 72%
    Mostrar más